Location: Allos
(44.2333°N, 6.6333°E)
Time: 23:13:01
(UTC+00:00)

Cosmos 1821 Rocket - Pass Details

Date: 23 April 2021
Orbit: 946 x 1003 km, 82.9° (Epoch: 16 May)

Event Time Altitude Azimuth Distance (km) Brightness Sun altitude
Rises 02:05:03 0° 347° (NNW) 3,712 7.5 -23.4°
Reaches altitude 10° 02:07:38 10° 342° (NNW) 2,766 6.7 -23.1°
Maximum altitude 02:13:43 50° 269° (W) 1,258 4.3 -22.3°
Enters shadow 02:15:08 43° 232° (SW) 1,383 4.3 -22.2°
